Time,TemperatureF,DewpointF,PressureIn,WindDirection,WindDirectionDegrees,WindSpeedMPH,WindSpeedGustMPH,Humidity,HourlyPrecipIn,Conditions,Clouds,dailyrainin,SolarRadiationWatts/m^2,SoftwareType,DateUTC
2013-06-06 00:02:00,64.0,40.0,-100.00,NNW,344,2.0,7.0,42,0.00,,,0.00,0.000000,,2013-06-06 07:02:00,
2013-06-06 00:12:00,64.0,40.0,-100.00,NNW,344,2.0,7.0,42,0.00,,,0.00,0.000000,,2013-06-06 07:12:00,
2013-06-06 00:32:00,62.0,40.0,-100.00,North,358,2.0,4.0,45,0.00,,,0.00,0.000000,,2013-06-06 07:32:00,
2013-06-06 00:42:00,62.0,40.0,-100.00,North,358,2.0,4.0,45,0.00,,,0.00,0.000000,,2013-06-06 07:42:00,
2013-06-06 00:52:00,62.0,40.0,-100.00,North,358,2.0,4.0,45,0.00,,,0.00,0.000000,,2013-06-06 07:52:00,
2013-06-06 01:02:00,62.0,40.0,-100.00,North,358,2.0,4.0,45,0.00,,,0.00,0.000000,,2013-06-06 08:02:00,
2013-06-06 01:12:00,62.0,40.0,-100.00,North,358,2.0,4.0,45,0.00,,,0.00,0.000000,,2013-06-06 08:12:00,
2013-06-06 01:32:00,60.0,41.0,-100.00,SE,143,3.0,4.0,50,0.00,,,0.00,0.000000,,2013-06-06 08:32:00,
2013-06-06 01:42:00,60.0,41.0,-100.00,SE,143,3.0,4.0,50,0.00,,,0.00,0.000000,,2013-06-06 08:42:00,
2013-06-06 01:52:00,60.0,41.0,-100.00,SE,143,3.0,4.0,50,0.00,,,0.00,0.000000,,2013-06-06 08:52:00,
2013-06-06 02:02:00,60.0,41.0,-100.00,SE,143,3.0,4.0,50,0.00,,,0.00,0.000000,,2013-06-06 09:02:00,
2013-06-06 02:12:00,60.0,41.0,-100.00,SE,143,3.0,4.0,50,0.00,,,0.00,0.000000,,2013-06-06 09:12:00,
2013-06-06 02:33:00,60.0,40.0,-100.00,SE,128,1.0,4.0,48,0.00,,,-99.99,0.000000,,2013-06-06 09:33:00,
2013-06-06 02:43:00,60.0,40.0,-100.00,SE,128,1.0,4.0,48,0.00,,,-99.99,0.000000,,2013-06-06 09:43:00,
2013-06-06 02:53:00,60.0,40.0,-100.00,SE,128,1.0,4.0,48,0.00,,,-99.99,0.000000,,2013-06-06 09:53:00,
2013-06-06 03:02:00,60.0,40.0,-100.00,SE,128,1.0,4.0,48,0.00,,,-99.99,0.000000,,2013-06-06 10:02:00,
2013-06-06 03:12:00,60.0,40.0,-100.00,SE,128,1.0,4.0,48,0.00,,,-99.99,0.000000,,2013-06-06 10:12:00,
2013-06-06 03:33:00,58.0,40.0,-100.00,SSE,156,3.0,5.0,52,0.00,,,0.00,0.000000,,2013-06-06 10:33:00,
2013-06-06 03:42:00,58.0,40.0,-100.00,SSE,156,3.0,5.0,52,0.00,,,0.00,0.000000,,2013-06-06 10:42:00,
2013-06-06 03:53:00,58.0,40.0,-100.00,SSE,156,3.0,5.0,52,0.00,,,0.00,0.000000,,2013-06-06 10:53:00,
2013-06-06 04:02:00,58.0,40.0,-100.00,SSE,156,3.0,5.0,52,0.00,,,0.00,0.000000,,2013-06-06 11:02:00,
2013-06-06 04:12:00,58.0,40.0,-100.00,SSE,156,3.0,5.0,52,0.00,,,0.00,0.000000,,2013-06-06 11:12:00,
2013-06-06 04:32:00,57.0,40.0,-100.00,SE,145,3.0,4.0,52,0.00,,,0.00,0.000000,,2013-06-06 11:32:00,
2013-06-06 04:42:00,57.0,40.0,-100.00,SE,145,3.0,4.0,52,0.00,,,0.00,0.000000,,2013-06-06 11:42:00,
2013-06-06 04:52:00,57.0,40.0,-100.00,SE,145,3.0,4.0,52,0.00,,,0.00,0.000000,,2013-06-06 11:52:00,
2013-06-06 05:02:00,57.0,40.0,-100.00,SE,145,3.0,4.0,52,0.00,,,0.00,0.000000,,2013-06-06 12:02:00,
2013-06-06 05:12:00,57.0,40.0,-100.00,SE,145,3.0,4.0,52,0.00,,,0.00,0.000000,,2013-06-06 12:12:00,
2013-06-06 05:33:00,56.0,39.0,-100.00,SE,143,5.0,5.0,52,0.00,,,0.00,0.000000,,2013-06-06 12:33:00,
2013-06-06 05:43:00,56.0,39.0,-100.00,SE,143,5.0,5.0,52,0.00,,,0.00,0.000000,,2013-06-06 12:43:00,
2013-06-06 05:53:00,56.0,39.0,-100.00,SE,143,5.0,5.0,52,0.00,,,0.00,0.000000,,2013-06-06 12:53:00,
2013-06-06 06:02:00,56.0,39.0,-100.00,SE,143,5.0,5.0,52,0.00,,,0.00,0.000000,,2013-06-06 13:02:00,
2013-06-06 06:12:00,56.0,39.0,-100.00,SE,143,5.0,5.0,52,0.00,,,0.00,0.000000,,2013-06-06 13:12:00,
2013-06-06 06:33:00,58.0,42.0,-100.00,SSE,151,3.0,6.0,56,0.00,,,0.00,32.000000,,2013-06-06 13:33:00,
2013-06-06 06:43:00,58.0,42.0,-100.00,SSE,151,3.0,6.0,56,0.00,,,0.00,32.000000,,2013-06-06 13:43:00,
2013-06-06 06:53:00,58.0,42.0,-100.00,SSE,151,3.0,6.0,56,0.00,,,0.00,32.000000,,2013-06-06 13:53:00,
2013-06-06 07:02:00,58.0,42.0,-100.00,SSE,151,3.0,6.0,56,0.00,,,0.00,32.000000,,2013-06-06 14:02:00,
2013-06-06 07:12:00,58.0,42.0,-100.00,SSE,151,3.0,6.0,56,0.00,,,0.00,32.000000,,2013-06-06 14:12:00,
2013-06-06 07:33:00,59.0,40.0,-100.00,SSE,163,2.0,5.0,50,0.00,,,0.00,113.000000,,2013-06-06 14:33:00,
2013-06-06 07:43:00,59.0,40.0,-100.00,SSE,163,2.0,5.0,50,0.00,,,0.00,113.000000,,2013-06-06 14:43:00,
2013-06-06 07:53:00,59.0,40.0,-100.00,SSE,163,2.0,5.0,50,0.00,,,0.00,113.000000,,2013-06-06 14:53:00,
2013-06-06 08:02:00,59.0,40.0,-100.00,SSE,163,2.0,5.0,50,0.00,,,0.00,113.000000,,2013-06-06 15:02:00,
2013-06-06 08:12:00,59.0,40.0,-100.00,SSE,163,2.0,5.0,50,0.00,,,0.00,113.000000,,2013-06-06 15:12:00,
2013-06-06 09:33:00,68.0,42.0,-100.00,WNW,283,4.0,8.0,39,-99.99,,,0.00,612.000000,,2013-06-06 16:33:00,
2013-06-06 09:44:00,68.0,42.0,-100.00,WNW,283,4.0,8.0,39,-99.99,,,0.00,612.000000,,2013-06-06 16:44:00,
2013-06-06 09:53:00,68.0,42.0,-100.00,WNW,283,4.0,8.0,39,-99.99,,,0.00,612.000000,,2013-06-06 16:53:00,
2013-06-06 10:03:00,68.0,42.0,-100.00,WNW,283,4.0,8.0,39,-99.99,,,0.00,612.000000,,2013-06-06 17:03:00,
2013-06-06 10:12:00,68.0,42.0,-100.00,WNW,283,4.0,8.0,39,-99.99,,,0.00,612.000000,,2013-06-06 17:12:00,
2013-06-06 10:33:00,71.0,43.0,-100.00,WNW,302,4.0,11.0,37,0.00,,,0.00,815.000000,,2013-06-06 17:33:00,
2013-06-06 10:43:00,71.0,43.0,-100.00,WNW,302,4.0,11.0,37,0.00,,,0.00,815.000000,,2013-06-06 17:43:00,
2013-06-06 10:53:00,71.0,43.0,-100.00,WNW,302,4.0,11.0,37,0.00,,,0.00,815.000000,,2013-06-06 17:53:00,
2013-06-06 11:03:00,71.0,43.0,-100.00,WNW,302,4.0,11.0,37,0.00,,,0.00,815.000000,,2013-06-06 18:03:00,
2013-06-06 11:12:00,71.0,43.0,-100.00,WNW,302,4.0,11.0,37,0.00,,,0.00,815.000000,,2013-06-06 18:12:00,
2013-06-06 11:33:00,75.0,45.0,-100.00,NW,320,7.0,11.0,34,0.00,,,0.00,975.000000,,2013-06-06 18:33:00,
2013-06-06 11:43:00,75.0,45.0,-100.00,NW,320,7.0,11.0,34,0.00,,,0.00,975.000000,,2013-06-06 18:43:00,
2013-06-06 11:53:00,75.0,45.0,-100.00,NW,320,7.0,11.0,34,0.00,,,0.00,975.000000,,2013-06-06 18:53:00,
2013-06-06 12:02:00,75.0,45.0,-100.00,NW,320,7.0,11.0,34,0.00,,,0.00,975.000000,,2013-06-06 19:02:00,
2013-06-06 12:12:00,75.0,45.0,-100.00,NW,320,7.0,11.0,34,0.00,,,0.00,975.000000,,2013-06-06 19:12:00,
2013-06-06 12:33:00,76.0,46.0,-100.00,WNW,300,8.0,12.0,34,0.00,,,0.00,1081.000000,,2013-06-06 19:33:00,
2013-06-06 12:43:00,76.0,46.0,-100.00,WNW,300,8.0,12.0,34,0.00,,,0.00,1081.000000,,2013-06-06 19:43:00,
2013-06-06 12:53:00,76.0,46.0,-100.00,WNW,300,8.0,12.0,34,0.00,,,0.00,1081.000000,,2013-06-06 19:53:00,
2013-06-06 13:02:00,76.0,46.0,-100.00,WNW,300,8.0,12.0,34,0.00,,,0.00,1081.000000,,2013-06-06 20:02:00,
2013-06-06 13:12:00,76.0,46.0,-100.00,WNW,300,8.0,12.0,34,0.00,,,0.00,1081.000000,,2013-06-06 20:12:00,
2013-06-06 13:33:00,79.0,47.0,-100.00,NW,325,9.0,15.0,32,0.00,,,0.00,1115.000000,,2013-06-06 20:33:00,
2013-06-06 13:43:00,79.0,47.0,-100.00,NW,325,9.0,15.0,32,0.00,,,0.00,1115.000000,,2013-06-06 20:43:00,
2013-06-06 13:53:00,79.0,47.0,-100.00,NW,325,9.0,15.0,32,0.00,,,0.00,1115.000000,,2013-06-06 20:53:00,
2013-06-06 14:03:00,79.0,47.0,-100.00,NW,325,9.0,15.0,32,0.00,,,0.00,1115.000000,,2013-06-06 21:03:00,
2013-06-06 14:12:00,79.0,47.0,-100.00,NW,325,9.0,15.0,32,0.00,,,0.00,1115.000000,,2013-06-06 21:12:00,
2013-06-06 14:33:00,81.0,47.0,-100.00,NNW,334,8.0,15.0,30,0.00,,,0.00,1080.000000,,2013-06-06 21:33:00,
2013-06-06 14:44:00,81.0,47.0,-100.00,NNW,334,8.0,15.0,30,0.00,,,0.00,1080.000000,,2013-06-06 21:44:00,
2013-06-06 14:53:00,81.0,47.0,-100.00,NNW,334,8.0,15.0,30,0.00,,,0.00,1080.000000,,2013-06-06 21:53:00,
2013-06-06 15:02:00,81.0,47.0,-100.00,NNW,334,8.0,15.0,30,0.00,,,0.00,1080.000000,,2013-06-06 22:02:00,
2013-06-06 15:12:00,81.0,47.0,-100.00,NNW,334,8.0,15.0,30,0.00,,,0.00,1080.000000,,2013-06-06 22:12:00,
2013-06-06 15:33:00,80.0,44.0,-100.00,WNW,290,11.0,18.0,28,0.00,,,0.00,750.000000,,2013-06-06 22:33:00,
2013-06-06 15:43:00,80.0,44.0,-100.00,WNW,290,11.0,18.0,28,0.00,,,0.00,750.000000,,2013-06-06 22:43:00,
2013-06-06 15:53:00,80.0,44.0,-100.00,WNW,290,11.0,18.0,28,0.00,,,0.00,750.000000,,2013-06-06 22:53:00,
2013-06-06 16:02:00,80.0,44.0,-100.00,WNW,290,11.0,18.0,28,0.00,,,0.00,750.000000,,2013-06-06 23:02:00,
2013-06-06 16:12:00,80.0,44.0,-100.00,WNW,290,11.0,18.0,28,0.00,,,0.00,750.000000,,2013-06-06 23:12:00,
2013-06-06 16:33:00,82.0,42.0,-100.00,NW,318,11.0,19.0,24,0.00,,,0.00,855.000000,,2013-06-06 23:33:00,
2013-06-06 16:43:00,82.0,42.0,-100.00,NW,318,11.0,19.0,24,0.00,,,0.00,855.000000,,2013-06-06 23:43:00,
2013-06-06 16:52:00,82.0,42.0,-100.00,NW,318,11.0,19.0,24,0.00,,,0.00,855.000000,,2013-06-06 23:52:00,
2013-06-06 17:02:00,82.0,42.0,-100.00,NW,318,11.0,19.0,24,0.00,,,0.00,855.000000,,2013-06-07 00:02:00,
2013-06-06 17:11:00,82.0,42.0,-100.00,NW,318,11.0,19.0,24,0.00,,,0.00,855.000000,,2013-06-07 00:11:00,
2013-06-06 18:33:00,79.0,38.0,-100.00,North,353,7.0,15.0,23,-99.99,,,0.00,508.000000,,2013-06-07 01:33:00,
2013-06-06 18:42:00,79.0,38.0,-100.00,North,353,7.0,15.0,23,-99.99,,,0.00,508.000000,,2013-06-07 01:42:00,
2013-06-06 18:52:00,79.0,38.0,-100.00,North,353,7.0,15.0,23,-99.99,,,0.00,508.000000,,2013-06-07 01:52:00,
2013-06-06 19:02:00,79.0,38.0,-100.00,North,353,7.0,15.0,23,-99.99,,,0.00,508.000000,,2013-06-07 02:02:00,
2013-06-06 19:12:00,79.0,38.0,-100.00,North,353,7.0,15.0,23,-99.99,,,0.00,508.000000,,2013-06-07 02:12:00,
2013-06-06 19:32:00,77.0,36.0,-100.00,WNW,302,11.0,15.0,23,0.00,,,0.00,306.000000,,2013-06-07 02:32:00,
2013-06-06 19:42:00,77.0,36.0,-100.00,WNW,302,11.0,15.0,23,0.00,,,0.00,306.000000,,2013-06-07 02:42:00,
2013-06-06 19:52:00,77.0,36.0,-100.00,WNW,302,11.0,15.0,23,0.00,,,0.00,306.000000,,2013-06-07 02:52:00,
2013-06-06 20:02:00,77.0,36.0,-100.00,WNW,302,11.0,15.0,23,0.00,,,0.00,306.000000,,2013-06-07 03:02:00,
2013-06-06 20:12:00,77.0,36.0,-100.00,WNW,302,11.0,15.0,23,0.00,,,0.00,306.000000,,2013-06-07 03:12:00,
2013-06-06 20:33:00,73.0,40.0,-100.00,WNW,300,13.0,19.0,30,0.00,,,0.00,110.000000,,2013-06-07 03:33:00,
2013-06-06 20:44:00,73.0,40.0,-100.00,WNW,300,13.0,19.0,30,0.00,,,0.00,110.000000,,2013-06-07 03:44:00,
2013-06-06 20:53:00,73.0,40.0,-100.00,WNW,300,13.0,19.0,30,0.00,,,0.00,110.000000,,2013-06-07 03:53:00,
2013-06-06 21:03:00,73.0,40.0,-100.00,WNW,300,13.0,19.0,30,0.00,,,0.00,110.000000,,2013-06-07 04:03:00,
2013-06-06 21:12:00,73.0,40.0,-100.00,WNW,300,13.0,19.0,30,0.00,,,0.00,110.000000,,2013-06-07 04:12:00,
2013-06-06 21:33:00,68.0,44.0,-100.00,WNW,295,12.0,21.0,42,0.00,,,0.00,8.000000,,2013-06-07 04:33:00,
2013-06-06 21:42:00,68.0,44.0,-100.00,WNW,295,12.0,21.0,42,0.00,,,0.00,8.000000,,2013-06-07 04:42:00,
2013-06-06 21:53:00,68.0,44.0,-100.00,WNW,295,12.0,21.0,42,0.00,,,0.00,8.000000,,2013-06-07 04:53:00,
2013-06-06 22:02:00,68.0,44.0,-100.00,WNW,295,12.0,21.0,42,0.00,,,0.00,8.000000,,2013-06-07 05:02:00,
2013-06-06 22:12:00,68.0,44.0,-100.00,WNW,295,12.0,21.0,42,0.00,,,0.00,8.000000,,2013-06-07 05:12:00,
2013-06-06 22:32:00,64.0,36.0,-100.00,West,270,5.0,14.0,35,0.00,,,0.00,0.000000,,2013-06-07 05:32:00,
2013-06-06 22:42:00,64.0,36.0,-100.00,West,270,5.0,14.0,35,0.00,,,0.00,0.000000,,2013-06-07 05:42:00,
2013-06-06 22:52:00,64.0,36.0,-100.00,West,270,5.0,14.0,35,0.00,,,0.00,0.000000,,2013-06-07 05:52:00,
2013-06-06 23:02:00,64.0,36.0,-100.00,West,270,5.0,14.0,35,0.00,,,0.00,0.000000,,2013-06-07 06:02:00,
2013-06-06 23:12:00,64.0,36.0,-100.00,West,270,5.0,14.0,35,0.00,,,0.00,0.000000,,2013-06-07 06:12:00,
2013-06-06 23:32:00,61.0,38.0,-100.00,SW,223,4.0,9.0,42,0.00,,,0.00,0.000000,,2013-06-07 06:32:00,
2013-06-06 23:42:00,61.0,38.0,-100.00,SW,223,4.0,9.0,42,0.00,,,0.00,0.000000,,2013-06-07 06:42:00,
2013-06-06 23:52:00,61.0,38.0,-100.00,SW,223,4.0,9.0,42,0.00,,,0.00,0.000000,,2013-06-07 06:52:00,